SCP
0 0 0 0 0 0 0 0 0 0 0 0 0 0 0 0 0 0 0 0 0 0 0 0 0 0 0 0 0 0 0 0 0 0 0 0 0 0 0 0 0 0 0
0 0 0 0 0 0 0 0 0 0 0 0 0 0 0 0 0 0 0 0 0 0 0 0 0 0 0 0 0 0 0 0 0 0 0 0 0 0 0 0 0 0 0
0 0 0 0 0 0 0 0 0 0 0 0 0 0 0 0 0 0 0 0 0 0 0 0 0 0 0 0 0 0 0 0 0 0 0 0 0 0 0 0 0 0 0
0 0 0 0 0 0 0 0 0 0 0 0 0 0 0 0 0 0 0 0 0 0 0 0 0 0 0 0 0 0 0 0 0 0 0 0 0 0 0 0 0 -0 -0
0 0 0 0 0 0 0 0 0 0 0 0 0 0 0 0 0 0 0 0 0 0 0 0 0 0 0 0 0 0 0 0 0 0 0 0 0 0 0 -0 -0 -0 -0
0 0 0 0 0 0 0 0 0 0 0 0 0 0 0 0 0 0 0 0 0 0 0 0 0 0 0 0 0 0 0 0 0 0 -0 -0 -0 -0 -0 -0 -0 -0 -0
0 0 0 0 0 0 0 0 0 0 0 0 0 0 0 0 0 -0 0 0 0 0 0 0 0 0 0 0 0 0 0 0 -0 -0 -0 -0 -0 -0 -0 -0 -0 -0 -0
0 0 0 0 0 0 0 0 0 0 0 0 0 0 0 0 0 0 0 0 0 0 0 0 0 0 0 0 0 0 0 0 -0 -0 -0 -0 -0 -0 -0 -0 -0 -0 -0
0 0 0 0 0 0 0 0 0 0 0 0 0 0 0 0 0 0 0 0 0 0 0 -0 -0 -0 -0 0 0 0 0 0 0 0 0 0 -0 -0 -0 -0 0 0 0
0 0 0 0 0 0 0 0 0 0 0 0 0 0 0 0 0 0 0 0 0 -0 -0 -0 -0 -0 -0 -0 0 0 0 0 0 0 0 0 0 0 0 0 0 0 0
0 0 0 0 0 0 0 0 0 0 0 0 0 0 0 0 0 0 0 0 0 0 0 0 0 0 0 0 0 0 0 0 0 0 0 0 0 0 0 0 0 0 0
0 0 0 0 0 0 0 0 0 0 0 0 0 0 0 0 0 0 0 0 0 0 0 0 0 0 0 0 0 0 0 0 0 0 0 0 0 0 0 0 0 0 0
0 0 0 0 0 0 0 0 0 0 0 0 0 0 0 0 0 0 0 0 0 0 0 0 0 0 0 0 0 0 0 0 0 0 0 0 0 0 0 0 0 0 0
0 0 0 0 0 0 0 0 0 0 0 0 0 0 0 0 0 0 0 0 0 -0 -0 0 0 0 0 0 0 0 0 0 0 0 0 0 0 0 0 0 0 0 0
0 0 0 0 0 -0 -0 -0 0 0 0 0 0 0 0 0 0 0 0 0 0 0 -0 0 0 0 0 0 0 0 0 0 0 0 0 0 0 0 0 0 0 0 0
0 0 0 0 0 -0 -0 -0 0 0 0 0 0 0 0 0 0 0 0 0 0 0 0 0 0 0 0 0 0 0 0 0 0 0 0 0 0 0 0 0 0 0 0
0 0 0 0 0 0 0 0 0 0 0 0 0 0 0 0 0 0 0 0 0 0 0 0 0 0 0 0 0 0 0 0 0 0 0 0 0 0 -0 -0 -0 0 0
0 0 0 0 0 0 0 0 0 0 0 0 0 0 0 0 0 0 0 0 0 0 0 0 0 0 0 0 0 0 0 0 0 0 0 0 0 0 -0 -0 -0 -0 0
0 0 0 0 0 0 0 0 0 0 0 0 0 0 0 0 0 0 0 0 0 0 0 0 0 0 0 0 0 0 0 0 0 0 0 0 0 0 -0 -0 -0 -0 -0
0 0 0 0 0 0 0 0 0 0 0 0 0 0 0 0 0 0 0 -0 -0 -0 -0 0 0 0 0 -0 0 0 0 0 0 0 0 0 0 0 -0 -0 -0 -0 -0
0 0 0 0 0 0 0 0 0 0 0 0 0 0 0 0 0 0 0 0 0 -0 -0 -0 0 0 0 0 0 0 0 0 0 0 0 0 0 -0 -0 -0 -0 -0 -0
0 0 0 0 0 0 0 0 0 0 0 0 0 0 0 0 0 0 0 0 0 -0 -0 -0 -0 -0 0 0 0 0 0 0 0 0 0 0 0 0 0 0 0 -0 -0
0 0 0 0 0 0 0 0 0 0 0 0 0 0 0 0 0 0 0 0 0 0 0 0 0 0 0 0 0 0 0 0 0 0 0 0 0 0 0 -0 -0 -0 -0
0 0 0 -0 0 0 0 0 0 0 0 0 0 0 0 0 0 0 0 0 0 0 0 0 0 0 0 0 0 0 0 0 0 0 0 0 0 -0 -0 -0 -0 -0 -0
0 0 0 -0 -0 0 0 0 0 0 0 0 0 0 0 0 0 0 0 0 0 0 0 0 0 0 0 0 0 0 0 0 0 0 0 0 0 -0 -0 -0 -0 -0 -0
0 0 0 -0 -0 0 0 0 0 0 0 0 0 0 0 0 0 0 0 0 0 0 0 0 0 0 0 0 0 0 0 0 0 0 0 0 0 -0 -0 -0 -0 -0 -0
Wind_Speed
5 5 5 5 5 5 5 5 5 5 5 5 5 5 6 6 6 5 6 5 6 5 5 5 5 4 3 3 3 3 3 4 7 4 3 3 4 5 5 4 4 4 4
4 5 5 5 5 6 6 5 5 5 5 5 5 6 7 7 6 6 6 7 7 7 6 6 5 4 5 4 4 5 5 5 7 8 4 3 4 4 4 4 3 3 3
4 5 5 5 5 5 5 5 5 5 6 6 6 7 7 6 6 6 6 7 7 7 6 6 5 5 6 5 5 6 5 6 6 7 5 3 3 3 3 4 4 3 3
4 5 5 5 4 4 5 5 6 6 6 6 6 7 6 6 6 6 7 7 7 7 7 7 7 6 5 5 6 7 7 8 7 7 6 4 3 3 2 3 3 3 3
4 5 4 4 4 5 5 5 6 6 6 6 7 7 7 6 6 6 7 8 8 8 8 8 8 10 10 7 6 6 7 7 6 6 5 4 3 2 2 1 2 2 2
4 4 3 4 5 5 5 5 6 6 6 7 7 7 8 6 9 10 8 7 8 8 8 8 8 10 12 13 13 10 7 7 6 5 4 4 3 2 2 2 2 2 1
3 3 3 4 5 5 5 6 6 5 6 7 7 7 7 8 10 11 11 8 8 8 8 7 7 8 9 9 11 13 12 10 7 5 5 3 3 2 2 2 2 1 1
3 3 3 4 4 4 5 5 5 4 5 5 6 6 6 7 9 9 10 8 8 8 8 7 7 7 7 7 8 9 9 8 6 4 4 3 2 2 2 2 2 2 1
3 3 3 3 4 4 5 4 3 4 5 4 4 6 6 7 9 8 7 6 6 7 7 7 7 7 8 9 9 8 8 6 7 8 7 6 5 4 3 3 2 2 2
2 3 3 3 4 4 3 3 3 3 4 4 6 6 6 6 9 8 6 4 5 5 5 7 9 8 8 8 6 6 6 4 4 5 6 6 5 4 4 2 2 1 1
3 4 4 3 3 3 3 3 3 3 4 5 6 5 6 7 7 9 7 4 3 4 4 4 4 7 8 8 6 4 3 2 3 4 4 4 3 3 3 2 1 1 1
4 4 4 3 3 3 3 3 3 3 4 4 4 5 4 5 6 7 9 7 4 4 3 2 3 6 7 7 5 5 6 4 3 4 4 3 3 3 3 2 1 2 3
5 4 4 4 4 3 3 3 3 3 3 3 3 3 3 3 4 7 8 7 6 3 2 3 4 6 6 5 6 6 5 3 3 3 3 2 2 2 3 2 2 2 1
5 4 3 4 4 3 3 2 2 2 2 2 2 2 2 2 3 3 3 3 5 4 3 4 6 7 6 4 4 4 3 2 2 2 1 1 2 2 2 2 2 3 2
4 3 3 3 3 3 3 2 1 0 1 1 1 1 1 1 2 3 2 2 2 2 2 3 3 3 4 3 3 3 3 2 2 1 1 1 2 2 2 2 2 2 2
4 3 2 2 2 2 2 2 3 1 1 1 3 2 1 2 3 3 3 3 3 2 3 2 2 2 2 2 2 2 2 2 2 1 1 1 2 2 2 2 1 2 2
4 3 2 2 2 1 1 1 1 3 3 2 1 1 2 3 3 3 3 3 3 2 2 1 1 1 1 1 1 1 1 1 1 1 1 1 1 2 2 2 2 2 3
3 3 2 2 2 1 1 1 1 0 2 2 3 3 3 3 3 3 2 1 2 2 0 0 1 1 1 1 1 1 1 1 1 1 1 2 2 2 2 3 3 3 4
3 2 2 2 1 1 1 1 1 1 1 2 2 3 3 3 3 3 1 1 1 1 1 1 2 2 2 2 2 2 2 2 2 2 2 3 2 2 3 3 4 4 4
2 3 3 2 1 1 1 1 1 2 2 2 3 3 2 1 1 1 1 2 2 3 3 3 3 3 3 3 3 2 2 3 3 3 3 3 3 3 4 5 4 4 4
2 2 2 2 2 2 2 2 2 2 3 3 4 4 4 3 3 3 3 3 4 4 4 4 4 4 3 3 3 3 4 4 4 4 4 4 4 4 4 4 5 5 6
3 2 2 2 2 2 2 3 3 3 4 4 4 3 5 4 4 4 4 5 5 5 4 4 4 4 4 4 4 4 4 5 5 4 4 4 4 5 5 5 5 6 6
3 3 2 2 2 3 2 2 3 3 4 4 4 4 3 4 4 5 5 5 4 4 4 4 5 5 5 4 5 5 6 6 6 5 5 5 5 5 5 6 8 8 8
4 4 3 3 2 2 3 3 3 3 4 4 4 4 4 4 5 5 5 5 5 5 4 5 6 7 9 6 5 5 6 7 6 5 7 7 7 6 6 7 8 9 9
5 4 4 4 3 3 3 4 4 4 4 4 5 5 5 5 5 5 5 5 6 6 7 6 5 7 9 10 9 8 7 8 8 6 6 6 7 8 8 9 9 9 10
5 5 5 4 4 4 4 4 5 5 5 5 5 5 5 5 6 6 5 5 5 6 7 6 8 9 10 9 11 10 9 8 8 8 6 6 7 8 9 8 11 10 11
Wind_Direction
43 44 48 43 41 44 45 35 28 25 23 25 22 26 26 24 24 34 34 31 37 37 38 48 47 48 59 52 60 77 89 107 115 101 77 80 72 75 69 64 61 60 76
46 49 47 45 45 46 42 32 32 31 28 28 30 35 33 32 32 40 42 39 41 42 42 49 46 49 57 57 69 79 87 95 116 115 98 80 78 76 74 74 69 73 73
53 53 47 44 45 43 38 33 35 35 34 33 36 37 33 33 36 39 47 47 45 44 44 50 47 56 63 66 75 82 89 96 98 110 102 86 83 80 76 71 66 55 63
60 58 49 41 45 44 42 38 36 37 40 36 37 38 35 37 38 41 48 47 45 45 45 47 50 58 69 76 83 86 94 97 98 102 102 94 87 77 77 71 62 45 47
68 58 47 42 49 52 48 44 41 41 42 39 41 37 35 37 34 41 49 51 48 47 44 43 50 60 63 70 88 96 101 100 101 103 104 102 94 92 84 69 82 63 53
75 63 53 52 54 54 52 51 50 43 37 40 39 38 39 36 40 50 59 56 50 49 45 41 48 54 62 67 74 79 91 107 111 108 109 110 108 105 101 101 97 78 54
80 71 64 64 59 53 59 57 50 42 40 41 35 38 40 34 45 54 57 62 54 47 45 44 50 48 57 70 72 68 66 69 87 115 116 118 125 137 129 107 92 75 58
90 79 74 75 71 63 61 56 47 43 43 40 35 33 41 33 42 57 60 59 55 46 42 44 54 47 49 68 76 70 63 56 61 76 103 112 122 131 128 119 114 96 54
95 88 81 86 83 74 66 56 48 55 51 43 37 36 41 28 33 51 62 59 55 43 36 38 47 55 51 67 75 72 63 51 56 67 74 75 82 97 121 109 91 79 44
106 101 92 91 94 89 76 63 51 63 63 58 50 38 38 32 31 46 55 63 58 43 34 31 39 51 54 64 75 78 70 46 44 48 49 47 55 65 76 100 122 103 69
111 101 92 88 93 91 76 66 68 70 65 58 55 41 36 32 33 43 52 61 64 55 42 26 21 41 57 63 71 75 85 85 65 64 56 44 39 39 40 53 156 180 203
106 99 93 84 81 85 80 69 66 73 70 56 54 42 28 23 31 39 51 57 62 66 44 17 19 46 58 61 67 79 84 84 73 63 52 33 21 13 2 353 310 243 244
105 100 94 83 72 72 81 77 64 64 74 61 61 49 19 10 19 33 41 45 50 59 37 38 55 62 62 58 60 63 64 68 68 59 41 14 345 329 331 345 2 345 300
110 103 96 89 75 60 59 67 74 67 76 74 70 54 22 8 9 8 12 18 27 37 30 36 52 60 59 53 48 45 48 58 74 65 21 344 337 357 10 5 360 353 352
113 107 100 91 86 70 54 44 58 58 209 161 163 156 86 3 322 328 345 358 356 4 26 37 37 34 34 30 30 32 36 47 51 32 12 6 6 8 2 358 357 352 346
118 111 113 114 103 94 79 44 37 40 15 175 190 189 243 257 294 331 353 1 7 47 70 54 39 34 30 17 12 9 13 20 16 10 11 5 353 350 346 347 344 335 323
134 133 133 134 131 120 108 104 17 1 23 33 358 240 247 270 291 316 344 10 28 71 73 47 17 346 332 325 321 320 325 333 328 327 327 327 323 318 319 323 327 320 313
141 148 150 155 158 164 174 179 168 321 332 328 334 308 287 282 286 298 314 15 22 42 63 307 298 288 279 276 272 270 284 298 294 294 292 291 291 291 297 301 303 298 300
155 159 156 157 167 186 191 189 204 232 258 288 308 312 302 292 295 296 257 196 260 281 271 267 265 264 261 258 254 251 257 270 270 270 273 272 272 272 280 286 289 288 287
170 180 172 173 190 208 211 211 220 236 251 260 267 272 293 299 286 286 228 225 242 255 255 258 262 256 252 252 251 247 251 257 262 262 265 267 266 263 271 280 284 288 287
175 184 186 187 212 221 222 230 235 238 247 256 260 252 230 236 255 263 261 246 244 251 254 253 254 256 249 243 244 245 248 257 256 257 262 265 266 267 269 272 276 279 282
177 189 201 217 227 226 229 232 235 241 251 260 271 272 238 230 245 255 258 257 250 245 245 245 253 253 247 242 238 241 249 254 256 256 258 262 263 266 271 274 277 281 283
183 196 209 225 231 239 239 239 239 246 254 260 266 267 253 239 245 251 258 259 256 252 243 233 243 253 250 241 235 233 240 248 251 248 251 261 266 268 269 272 277 283 285
195 204 212 224 229 239 246 251 249 253 259 263 264 262 258 252 251 254 257 258 257 257 250 239 240 248 253 251 244 239 240 247 251 250 247 253 263 269 271 273 276 279 282
202 208 214 221 228 237 244 250 254 257 261 262 263 264 262 256 255 257 256 254 255 257 257 248 243 247 252 253 253 252 248 246 246 246 244 247 257 264 270 273 276 280 281
207 211 216 221 228 235 241 249 256 258 260 262 262 260 259 257 257 258 257 253 253 256 257 253 248 248 252 254 256 255 253 251 249 242 238 246 255 263 269 272 277 278 282